#timestamp,LO_Frequency,Hit,StdDev 
1541955615.6,286047000.7,N
1541955635.4,286047000.6,N
1541955655.3,286047001.1,N
1541955675.1,286046998.1,N
1541955695.9,286046999.1,N
1541955715.7,286046998.6,N
1541955735.5,286047000.8,N
1541955755.4,286046999.5,N
1541955775.2,286046997.7,N
1541955795.0,286046996.5,N
1541955795.9,286046996.5,N
1541955815.8,286046996.5,N
1541955835.6,286046999.4,N
1541955855.5,286046997.1,N
1541955875.3,286046997.0,N
1541955895.1,286046996.8,N
1541955915.9,286046999.6,N
1541955935.7,286046997.0,N
1541955955.5,286046999.3,N
1541955975.4,286046999.2,N
1541955995.2,286046999.6,N
1541956015.0,286046999.4,N
1541956016.0,286046999.4,N
1541956035.8,286046999.3,N
1541956055.6,286046998.9,N
1541956075.5,286046998.8,N
1541956095.3,286047001.1,N
1541956115.1,286046999.0,N
1541956135.9,286046998.9,N
1541956155.7,286046999.1,N
1541956175.6,286046998.2,N
1541956195.4,286046996.6,N
1541956215.2,286046996.9,N
1541956235.1,286046999.4,N
1541956236.0,286046999.4,N
1541956255.8,286047000.9,N
1541956275.6,286047000.4,N
1541956295.5,286046999.8,N
1541956315.3,286047000.6,N
1541956335.2,286047000.8,N
1541956355.9,286047000.5,N
1541956375.7,286047000.3,N
1541956395.6,286046998.5,N
1541956415.4,286047000.8,N
1541956435.2,286047000.3,N
1541956455.1,286047000.3,N
1541956456.0,286047000.3,N
1541956475.8,286047001.2,N
1541956495.7,286046998.1,N
1541956515.5,286047001.2,N
1541956535.3,286047001.0,N
1541956555.2,286046998.8,N
1541956575.9,286047001.2,N
1541956595.7,286047001.0,N
1541956615.6,286047000.7,N
1541956635.4,286047000.8,N
1541956655.2,286046998.1,N
1541956675.1,286046998.9,N
1541956676.0,286046998.9,N
1541956695.8,286046998.8,N
1541956715.7,286046999.6,N
1541956735.5,286046996.6,N
1541956755.3,286047001.2,N
1541956775.2,286046999.3,N
1541956795.0,286046998.2,N
1541956795.9,286046998.2,N
1541956815.8,286046998.6,N
1541956835.6,286046999.4,N
1541956855.4,286046996.5,N
1541956875.3,286046998.3,N
1541956895.1,286046996.8,N
1541956896.0,286046996.8,N
1541956915.8,286046998.9,N
1541956935.7,286046999.4,N
1541956955.5,286046998.3,N
1541956975.3,286046997.1,N
1541956995.2,286046997.7,N
1541957015.0,286046997.9,N
1541957015.9,286046997.9,N
1541957035.8,286046995.1,Y
1541957055.6,286046997.7,P
1541957075.4,286046995.3,P
1541957095.3,286046997.9,N
1541957115.1,286046995.0,Y
1541957135.9,286046998.1,P
1541957155.7,286047000.1,N
1541957175.5,286047000.5,N
1541957195.4,286047002.3,N
1541957215.2,286047000.6,N
1541957235.0,286047000.5,N
1541957235.9,286047000.5,N
1541957255.8,286047000.4,N
1541957275.6,286047002.8,N
1541957295.5,286046999.8,N
1541957315.3,286046999.8,N
1541957335.1,286047002.3,N
1541957355.9,286047002.2,N
1541957375.7,286047002.0,N
1541957395.5,286047001.9,N
1541957415.4,286047000.0,N
1541957435.2,286047000.8,N
1541957455.0,286047000.3,N
1541957456.0,286047000.3,N
1541957475.8,286046999.1,N
1541957495.6,286046999.4,N
1541957515.5,286046996.7,N
1541957535.3,286046997.7,N
1541957555.1,286046995.0,Y
1541957575.9,286046994.2,P
1541957595.7,286046993.6,N
1541957615.6,286046994.6,N
1541957635.4,286046993.8,N
1541957655.2,286046996.3,N
1541957675.1,286046995.4,N
1541957676.0,286046995.4,N
1541957695.8,286046995.4,N
1541957715.6,286046996.1,N
1541957735.5,286046993.3,Y
1541957755.3,286046998.7,P
1541957775.2,286047001.1,N
1541957795.9,286047000.9,N
1541957815.7,286047002.8,N
1541957835.6,286047000.8,N
1541957855.4,286047000.5,N
1541957875.2,286047000.6,N
1541957895.1,286047000.3,N
1541957896.0,286047000.3,N
1541957915.8,286046998.2,N
1541957935.6,286046998.5,N
1541957955.5,286046996.9,N
1541957975.3,286046998.1,N
1541957995.2,286046998.6,N
1541958015.9,286046999.0,N
1541958035.7,286047001.1,N
1541958055.6,286046999.6,N
1541958075.4,286046999.1,N
1541958095.2,286046998.3,N
1541958115.1,286047001.2,N
1541958116.0,286047001.2,N
1541958135.8,286047000.3,N
1541958155.7,286046999.9,N
1541958175.5,286047001.0,N
1541958195.3,286047000.5,N
1541958215.2,286047000.5,N
1541958235.0,286047001.0,N
1541958235.9,286047001.0,N
1541958255.7,286047001.9,N
1541958275.6,286047001.6,N
1541958295.4,286046999.8,N
1541958315.3,286047002.4,N
1541958335.1,286046999.7,N
1541958336.0,286046999.7,N
1541958355.8,286047001.9,N
1541958375.7,286047002.4,N
1541958395.5,286047002.6,N
1541958415.3,286047000.2,N
1541958435.2,286046999.7,N
1541958455.0,286047002.2,N
1541958455.9,286047002.2,N
1541958475.8,286047001.8,N
1541958495.6,286047001.5,N
1541958515.4,286047002.4,N
1541958535.3,286047001.5,N
1541958555.1,286047001.8,N
1541958575.8,286046999.7,N
1541958595.7,286047002.5,N
1541958615.5,286047001.6,N
1541958635.4,286047001.9,N
1541958655.2,286047003.9,Y
1541958675.0,286047004.4,P
1541958675.9,286047004.4,N
1541958695.8,286047004.1,N
1541958715.6,286047003.0,N
1541958735.5,286047005.9,Y
1541958755.3,286046999.8,P
1541958775.1,286047000.0,N
1541958795.9,286047000.6,N
1541958815.7,286047000.7,N
1541958835.5,286047000.2,N
1541958855.4,286047003.9,Y
1541958875.2,286047003.9,P
1541958895.1,286047001.8,N
1541958896.0,286047001.8,N
1541958915.8,286047001.7,N
1541958935.6,286047002.9,N
1541958955.5,286047004.5,Y
1541958975.3,286047001.5,P
1541958995.1,286046999.7,N
1541959015.9,286046999.8,N
1541959035.7,286047002.4,N
1541959055.6,286047000.6,N
1541959075.4,286047002.2,N
1541959095.2,286047002.3,N
1541959115.1,286047002.3,N
1541959116.0,286047002.3,N
1541959135.8,286046999.8,N
1541959155.6,286047002.3,N
1541959175.5,286047004.3,Y
1541959195.3,286047001.9,P
